Regional Weather Roundup
Issued by NWS

Home | Current Version | Previous Version | Text Only | Print | Product List | Glossary Off
Versions: 1 2 3 4 5 6 7 8 9 10 11 12 13 14 15 16 17 18 19 20 21 22 23 24 25 26 27 28 29 30 31 32 33 34 35 36 37 38 39 40 41 42 43 44 45 46 47 48 49 50

000
ASUS45 KCYS 240110
RWRWY

WYOMING REGIONAL WEATHER ROUNDUP
NATIONAL WEATHER SERVICE CHEYENNE WY
700 PM MDT THU APR 23 2015

NOTE:  "FAIR" INDICATES FEW OR NO CLOUDS BELOW 12,000 FEET
WITH NO SIGNIFICANT WEATHER AND/OR OBSTRUCTIONS TO VISIBILITY.

WYZ001-240200-
YELLOWSTONE NATIONAL PARK

CITY           SKY/WX    TMP DP  RH WIND       PRES   REMARKS
LK YELLOWSTONE   N/A     46  20  35 VRB5      29.83S
W YELLOWSTONE  NOT AVBL

$$
WYZ002>013-054>058-071-098>099-240200-
NORTHERN WYOMING

CITY           SKY/WX    TMP DP  RH WIND       PRES   REMARKS
JACKSON        SUNNY     54  27  35 SW8       29.77F
CODY           PTSUNNY   52  45  76 NE6       29.71F
GREYBULL       CLOUDY    64  36  35 N7        29.64F
WORLAND        CLOUDY    57  46  66 CALM      29.67R
SHERIDAN       FAIR      54  44  69 CALM      29.71F
BUFFALO        CLOUDY    51  44  77 NW14      29.73F
GILLETTE       FAIR      61  37  41 N12       29.68R
HULETT         FAIR      61  36  39 NE7       29.69S
NEWCASTLE      FAIR      61  36  39 S6        29.68R

$$
WYZ014>020-022>026-101>103-240200-
CENTRAL WYOMING

CITY           SKY/WX    TMP DP  RH WIND       PRES   REMARKS
BIG PINEY      CLOUDY    45  36  70 NW6       29.83F
PINEDALE       LGT RAIN  43  36  75 SE5       29.84S
DUBOIS         RAIN      43  34  70 W25G33    29.76S
LANDER         PTSUNNY   57  35  43 NW13      29.69R
RIVERTON       CLOUDY    57  30  35 W16       29.69S
CASPER         FAIR     N/A N/A N/A MISG      29.72F
DOUGLAS        CLOUDY    58  36  43 N7        29.70F

$$
WYZ021-027>030-104>119-240200-
SOUTHERN WYOMING

CITY           SKY/WX    TMP DP  RH WIND       PRES   REMARKS
EVANSTON       FAIR      45  35  68 S10       29.84F
KEMMERER       FAIR      46  34  61 N6        29.85F
FORT BRIDGER   CLOUDY    50  32  50 SW13      29.88S
ROCK SPRINGS   CLOUDY    46  33  60 NW12      29.86R
DIXON          FAIR      50  32  49 SW3       29.87S
RAWLINS        FAIR      50  32  50 W17       29.82R
SARATOGA       FAIR      48  32  53 W15G22    29.86R
LARAMIE        FAIR      45  34  65 S9        29.81S
CHEYENNE       FAIR      57  28  33 W13       29.76F
TORRINGTON     FAIR      69  29  22 W14       29.64F
PINE BLUFFS    FAIR      59  34  38 W7        29.73F

$$



USA.gov is the U.S. government's official web portal to all federal, state and local government web resources and services.